Flag for Mexico Weather past 2 weeks in Mexicali, Baja California, Mexico

Now
65 °F

Clear.


Feels Like: 65 °F
Forecast: 58 / 86 °F
Wind: 5 mph from North

Location: Imperial County Airport

Current Time: Apr 27, 2015 at 3:03:11 AM

Latest Report: Apr 27, 2015 at 1:53 AM


Visibility: 10 mi

Pressure: 29.86 "Hg

Humidity: 44%

Dew point: 42 °F

Location of MexicaliLocation

Historic Weather in Mexicali — Graph

°F

Mexicali temperature yesterday

Maximum temperature yesterday: 85 °F (at 3:53 PM)
Minimum temperature yesterday: 56 °F (at 5:53 AM)
Average temperature yesterday: 71 °F

Past Weeks' High & Low Weather Summary

 TemperatureHumidityPressure
High94 °F (Apr 14, 3:53 PM)78% (Apr 12, 5:53 AM)30.07 "Hg (Apr 12, 5:53 AM)
Low46 °F (Apr 16, 5:53 AM)7% (Apr 15, 4:53 PM)29.64 "Hg (Apr 20, 5:53 PM)
Average72 °F34%29.85 "Hg
* Reported Apr 12 1:53 AM — Apr 27 1:53 AM, Mexicali, Weather by CustomWeather, © 2015

Note: Actual official high and low records may vary slightly from our data, if they occured in-between our weather recording intervals... More about our weather records

Advertising

Mexicali weather history for previous 24 hours

 ConditionsComfort  
Time TempWeatherWind HumidityBarometerVisibility
1:53 AM
Mon, Apr 27
65 °FClear.5 mph44%29.86 "Hg10 mi
12:53 AM66 °FClear.3 mph50%29.86 "Hg10 mi
11:53 PM
Sun, Apr 26
67 °FClear.No wind51%29.86 "Hg10 mi
10:53 PM69 °FClear.7 mph49%29.83 "Hg10 mi
9:53 PM72 °FClear.5 mph43%29.83 "Hg10 mi
8:53 PM76 °FClear.6 mph26%29.81 "Hg10 mi
7:53 PM76 °FSunny.6 mph27%29.78 "Hg10 mi
6:53 PM79 °FSunny.7 mph26%29.76 "Hg10 mi
5:53 PM82 °FSunny.8 mph19%29.76 "Hg10 mi
4:53 PM83 °FSunny.12 mph17%29.77 "Hg10 mi
3:53 PM85 °FSunny.9 mph14%29.79 "Hg10 mi
2:53 PM84 °FSunny.12 mph15%29.81 "Hg10 mi
1:53 PM83 °FSunny.14 mph14%29.83 "Hg10 mi
12:53 PM81 °FSunny.10 mph18%29.85 "Hg10 mi
11:53 AM80 °FSunny.14 mph17%29.88 "Hg10 mi
10:53 AM77 °FSunny.9 mph22%29.89 "Hg10 mi
9:53 AM74 °FSunny.16 mph29%29.88 "Hg10 mi
8:53 AM70 °FSunny.13 mph37%29.88 "Hg10 mi
7:53 AM64 °FSunny.9 mph54%29.88 "Hg10 mi
6:53 AM57 °FClear.7 mph62%29.86 "Hg10 mi
5:53 AM56 °FClear.7 mph60%29.85 "Hg10 mi
4:53 AM57 °FClear.7 mph60%29.83 "Hg10 mi
3:53 AM58 °FClear.8 mph60%29.81 "Hg10 mi
Weather by CustomWeather, © 2015

See weather overviewHow to use our weather pages